K3CHZ Weather Reports


time (UTC)temp
C
wind
direction
speed
KPH
gust
KPH
rain 1hr
cm
rain 24hr
cm
rain mn
cm
humidity
%
barometer
mb
20260510095216 9 175 0.0 0.0 0.00 0.00 0.00 93 1011.6
20260510094718 9 175 0.0 0.0 0.00 0.00 0.00 93 1011.7
20260510094216 9 175 0.0 0.0 0.00 0.00 0.00 93 1011.7
20260510093718 9 175 0.0 0.0 0.00 0.00 0.00 93 1011.8
20260510093216 9 175 0.0 0.0 0.00 0.00 0.00 93 1011.7
20260510092713 9 175 0.0 0.0 0.00 0.00 0.00 93 1011.7
20260510092212 9 175 0.0 0.0 0.00 0.00 0.00 93 1011.7
20260510091712 9 175 0.0 0.0 0.00 0.00 0.00 93 1011.7
20260510091213 9 175 0.0 0.0 0.00 0.00 0.00 93 1011.7
20260510090713 10 175 0.0 0.0 0.00 0.00 0.00 93 1011.8
20260510090212 10 175 0.0 0.0 0.00 0.00 0.00 93 1011.7
20260510085712 10 175 0.0 0.0 0.00 0.00 0.00 94 1011.7
20260510085213 10 175 0.0 0.0 0.00 0.00 0.00 94 1011.6
20260510084712 10 175 0.0 0.0 0.00 0.00 0.00 95 1011.6
20260510084212 9 175 0.0 0.0 0.00 0.00 0.00 93 1011.6
20260510083713 9 175 0.0 0.0 0.00 0.00 0.00 93 1011.6
20260510083214 9 175 0.0 0.0 0.00 0.00 0.00 92 1011.6
20260510082713 9 175 0.0 0.0 0.00 0.00 0.00 93 1011.5
20260510082216 9 175 0.0 0.0 0.00 0.00 0.00 93 1011.6
20260510081716 9 175 0.0 0.0 0.00 0.00 0.00 92 1011.5
20260510081215 10 175 0.0 0.0 0.00 0.00 0.00 92 1011.5
20260510080717 10 175 0.0 0.0 0.00 0.00 0.00 95 1011.4
20260510080215 9 175 0.0 0.0 0.00 0.00 0.00 93 1011.4
20260510075717 9 175 0.0 0.0 0.00 0.00 0.00 91 1011.3
20260510075215 9 175 0.0 0.0 0.00 0.00 0.00 90 1011.2
20260510074716 10 175 0.0 0.0 0.00 0.00 0.00 90 1011.1
20260510073215 10 175 0.0 0.0 0.00 0.00 0.00 92 1011.0
20260510072717 10 175 0.0 0.0 0.00 0.00 0.00 92 1010.7
20260510072218 10 175 0.0 0.0 0.00 0.00 0.00 92 1010.7
20260510071218 10 175 0.0 0.0 0.00 0.00 0.00 91 1010.7
20260510070718 10 175 0.0 0.0 0.00 0.00 0.00 91 1010.6
20260510070219 10 175 0.0 0.0 0.00 0.00 0.00 91 1010.6
20260510065719 10 175 0.0 0.0 0.00 0.00 0.00 90 1010.6
20260510065219 10 175 0.0 0.0 0.00 0.00 0.00 89 1010.5
20260510064720 10 175 0.0 0.0 0.00 0.00 0.00 90 1010.5
20260510064219 11 175 0.0 0.0 0.00 0.00 0.00 91 1010.5
20260510063718 11 175 0.0 0.0 0.00 0.00 0.00 92 1010.4
20260510063218 11 175 0.0 0.0 0.00 0.00 0.00 92 1010.5
20260510062720 11 175 0.0 0.0 0.00 0.00 0.00 91 1010.4
20260510062218 11 175 0.0 0.0 0.00 0.00 0.00 89 1010.5
20260510061718 11 175 0.0 0.0 0.00 0.00 0.00 89 1010.4
20260510060719 11 175 0.0 0.0 0.00 0.00 0.00 89 1010.3
20260510060218 11 175 0.0 0.0 0.00 0.00 0.00 90 1010.4
20260510055718 11 175 0.0 0.0 0.00 0.00 0.00 89 1010.4
20260510055218 11 175 0.0 0.0 0.00 0.00 0.00 89 1010.5
20260510054720 11 175 0.0 0.0 0.00 0.00 0.00 90 1010.5
20260510054218 11 175 0.0 0.0 0.00 0.00 0.00 90 1010.5
20260510053219 12 175 0.0 0.0 0.00 0.00 0.00 89 1010.6
20260510052716 12 175 0.0 0.0 0.00 0.00 0.00 89 1010.7
20260510051716 12 175 0.0 0.0 0.00 0.00 0.00 88 1010.5
20260510051217 12 175 0.0 0.0 0.00 0.00 0.00 87 1010.6
20260510050715 12 175 0.0 0.0 0.00 0.00 0.00 88 1010.6
20260510045716 12 175 0.0 0.0 0.00 0.00 0.00 88 1010.6
20260510045215 12 175 0.0 0.0 0.00 0.00 0.00 87 1010.7
20260510044715 12 175 0.0 0.0 0.00 0.00 0.00 88 1010.7
20260510044216 13 175 0.0 0.0 0.00 0.00 0.00 87 1010.7
20260510043716 13 175 0.0 0.0 0.00 0.00 0.00 86 1010.6
20260510043217 13 175 0.0 0.0 0.00 0.00 0.00 87 1010.6
20260510042715 13 175 0.0 0.0 0.00 0.00 0.00 88 1010.6
20260510042215 13 175 0.0 0.0 0.00 0.00 0.00 88 1010.7
20260510041716 13 175 0.0 0.0 0.00 0.00 0.00 88 1010.7
20260510041215 13 175 0.0 0.0 0.00 0.00 0.00 87 1010.6
20260510040717 13 175 0.0 0.0 0.00 0.00 0.00 86 1010.6
20260510040215 13 175 0.0 0.0 0.00 0.00 0.00 86 1010.6
20260510035716 13 175 0.0 0.0 0.00 0.00 0.00 86 1010.6
20260510035215 13 175 0.0 0.0 0.00 0.00 0.00 86 1010.5
20260510034716 13 175 0.0 0.0 0.00 0.00 0.00 86 1010.5
20260510034216 13 175 0.0 0.0 0.00 0.00 0.00 86 1010.6
20260510033715 14 175 0.0 0.0 0.00 0.00 0.00 86 1010.6
20260510033215 14 175 0.0 0.0 0.00 0.00 0.00 85 1010.5
20260510032717 14 175 0.0 0.0 0.00 0.00 0.00 85 1010.5
20260510032215 14 175 0.0 0.0 0.00 0.00 0.00 84 1010.5
20260510031724 15 175 0.0 0.0 0.00 0.00 0.00 84 1010.5
20260510031215 15 175 0.0 0.0 0.00 0.00 0.00 83 1010.5
20260510030715 15 175 0.0 0.0 0.00 0.00 0.00 83 1010.4
20260510030215 15 175 0.0 0.0 0.00 0.00 0.00 82 1010.4
20260510025718 15 175 0.0 0.0 0.00 0.00 0.00 82 1010.4
20260510025215 15 175 0.0 0.0 0.00 0.00 0.00 81 1010.3
20260510024716 15 175 0.0 0.0 0.00 0.00 0.00 81 1010.3
20260510024217 15 175 0.0 0.0 0.00 0.00 0.00 81 1010.3
20260510023717 15 175 0.0 0.0 0.00 0.00 0.00 81 1010.2
20260510023216 15 175 0.0 0.0 0.00 0.00 0.00 81 1010.1
20260510022718 16 175 0.0 0.0 0.00 0.00 0.00 81 1010.1
20260510021718 16 175 0.0 0.0 0.00 0.00 0.00 80 1010.2
20260510021219 16 175 0.0 0.0 0.00 0.00 0.00 80 1010.1
20260510020719 16 175 0.0 0.0 0.00 0.00 0.00 80 1010.1
20260510020218 16 175 0.0 0.0 0.00 0.00 0.00 80 1010.1
20260510015718 16 175 0.0 0.0 0.00 0.00 0.00 79 1010.1
20260510015219 16 175 0.0 0.0 0.00 0.00 0.00 79 1010.1
20260510014720 16 175 0.0 0.0 0.00 0.00 0.00 79 1010.0
20260510014219 16 175 0.0 0.0 0.00 0.00 0.00 79 1009.9
20260510013718 16 175 0.0 0.0 0.00 0.00 0.00 79 1009.7
20260510013219 16 175 0.0 0.0 0.00 0.00 0.00 79 1009.7
20260510012718 16 175 0.0 3.2 0.00 0.00 0.00 79 1009.6
20260510012219 16 175 0.0 3.2 0.00 0.00 0.00 78 1009.6
20260510011718 16 175 0.0 3.2 0.00 0.00 0.00 78 1009.5
20260510011220 16 175 0.0 0.0 0.00 0.00 0.00 78 1009.4
20260510010718 17 175 0.0 0.0 0.00 0.00 0.00 78 1009.4
20260510010219 17 175 0.0 0.0 0.00 0.00 0.00 77 1009.4
20260510005718 17 175 0.0 0.0 0.00 0.00 0.00 77 1009.3
20260510005219 17 175 0.0 1.6 0.00 0.00 0.00 77 1009.3
20260510004721 17 175 0.0 1.6 0.00 0.00 0.00 77 1009.2
20260510004218 17 175 0.0 0.0 0.00 0.00 0.00 77 1009.3
20260510003719 17 175 0.0 0.0 0.00 0.00 0.00 76 1009.2
20260510003220 17 175 0.0 0.0 0.00 0.00 0.00 76 1009.1
20260510002719 17 175 0.0 0.0 0.00 0.00 0.00 74 1009.0
20260510002219 18 175 0.0 0.0 0.00 0.00 0.00 74 1009.0
20260510001719 18 175 0.0 0.0 0.00 0.00 0.00 74 1009.1
20260510000719 18 175 0.0 0.0 0.00 0.00 0.00 73 1009.0
20260510000219 18 175 0.0 0.0 0.00 0.00 0.00 72 1009.0
20260509235218 18 175 0.0 0.0 0.00 0.00 0.00 71 1008.8
20260509234721 18 175 0.0 3.2 0.00 0.00 0.00 71 1008.8
20260509234219 18 175 1.6 3.2 0.00 0.00 0.00 71 1008.9
20260509233219 19 181 0.0 0.0 0.00 0.00 0.00 71 1008.8
20260509232216 20 181 0.0 4.8 0.00 0.00 0.00 69 1008.7
20260509231716 20 181 0.0 0.0 0.00 0.00 0.00 68 1008.7
20260509230215 20 181 0.0 0.0 0.00 0.00 0.00 62 1008.7
20260509225215 20 181 0.0 0.0 0.00 0.00 0.00 63 1008.5
20260509224717 20 181 0.0 0.0 0.00 0.00 0.00 63 1008.6
20260509224216 20 181 0.0 0.0 0.00 0.00 0.00 62 1008.6
20260509223716 20 121 0.0 0.0 0.00 0.00 0.00 62 1008.6
20260509222716 20 137 0.0 0.0 0.00 0.00 0.00 62 1008.7
20260509221716 20 137 0.0 0.0 0.00 0.00 0.00 62 1008.6
20260509221216 20 137 0.0 0.0 0.00 0.00 0.00 61 1008.7
20260509220215 20 137 0.0 0.0 0.00 0.00 0.00 62 1008.7
20260509215715 20 137 0.0 0.0 0.00 0.00 0.00 66 1008.6
20260509215217 20 137 0.0 0.0 0.00 0.00 0.00 66 1008.7
20260509214715 20 137 0.0 0.0 0.00 0.00 0.00 64 1008.8
20260509214215 20 137 0.0 0.0 0.00 0.00 0.00 63 1008.7
20260509213716 20 137 0.0 0.0 0.00 0.00 0.00 63 1008.8
20260509213217 20 137 0.0 0.0 0.00 0.00 0.00 61 1008.8
20260509212219 20 157 0.0 0.0 0.00 0.00 0.00 62 1008.7
20260509211720 20 157 0.0 0.0 0.00 0.00 0.00 60 1008.7
20260509211219 20 98 0.0 0.0 0.00 0.00 0.00 63 1008.7
20260509210720 20 98 0.0 0.0 0.00 0.00 0.00 60 1008.8
20260509210218 20 98 0.0 0.0 0.00 0.00 0.00 61 1008.9
20260509205719 20 98 0.0 0.0 0.00 0.00 0.00 61 1008.7
20260509205219 20 98 0.0 0.0 0.00 0.00 0.00 61 1008.7
20260509204719 20 98 0.0 0.0 0.00 0.00 0.00 62 1008.7
20260509204219 20 96 0.0 0.0 0.00 0.00 0.00 63 1008.8
20260509203719 20 97 0.0 0.0 0.00 0.00 0.00 63 1008.7
20260509203219 20 97 0.0 0.0 0.00 0.00 0.00 62 1008.7
20260509202720 20 97 0.0 3.2 0.00 0.00 0.00 62 1008.7
20260509202503 20 97 0.0 3.2 0.00 0.00 0.00 61 1008.8
20260509201004 20 73 0.0 0.0 0.00 0.00 0.00 59 1008.7
20260509200216 20 84 0.0 0.0 0.00 0.00 0.00 60 1008.8
20260509195716 20 103 0.0 1.6 0.00 0.00 0.00 60 1008.9
20260509195218 20 113 0.0 1.6 0.00 0.00 0.00 61 1009.0
20260509194717 20 190 0.0 1.6 0.00 0.00 0.00 60 1009.0
20260509194216 20 205 0.0 1.6 0.00 0.00 0.00 61 1009.1
20260509193717 20 205 0.0 1.6 0.00 0.00 0.00 61 1009.3
20260509193217 20 172 0.0 0.0 0.00 0.00 0.00 62 1009.5
20260509192717 19 171 0.0 0.0 0.00 0.00 0.00 62 1009.5
20260509192221 19 171 0.0 3.2 0.00 0.00 0.00 61 1009.5
20260509191720 19 171 0.0 3.2 0.00 0.00 0.00 61 1009.5
20260509190719 19 199 0.0 0.0 0.00 0.00 0.00 63 1009.5
20260509190221 19 199 0.0 0.0 0.00 0.00 0.00 62 1009.6
20260509185720 19 199 0.0 0.0 0.00 0.00 0.00 65 1009.8
20260509184720 20 199 0.0 1.6 0.00 0.00 0.00 59 1009.8
20260509184221 20 148 0.0 1.6 0.00 0.00 0.00 61 1009.8
20260509183719 19 219 0.0 1.6 0.00 0.00 0.00 62 1009.9
20260509183223 19 276 0.0 0.0 0.00 0.00 0.00 64 1009.9
20260509182717 19 276 0.0 0.0 0.00 0.00 0.00 61 1009.9
20260509182216 18 276 0.0 0.0 0.00 0.00 0.00 66 1010.1
20260509181717 18 276 0.0 1.6 0.00 0.00 0.00 61 1010.3
20260509181217 18 276 0.0 1.6 0.00 0.00 0.00 64 1010.5
20260509180717 18 276 0.0 0.0 0.00 0.00 0.00 62 1010.6
20260509180217 18 296 0.0 4.8 0.00 0.00 0.00 61 1010.6
20260509175719 18 295 0.0 4.8 0.00 0.00 0.00 63 1010.7
20260509175216 18 105 0.0 0.0 0.00 0.00 0.00 63 1010.7
20260509174717 18 105 0.0 0.0 0.00 0.00 0.00 62 1010.8
20260509174217 18 105 0.0 0.0 0.00 0.00 0.00 60 1010.8
20260509173717 18 106 0.0 0.0 0.00 0.00 0.00 63 1010.8
20260509173217 18 118 0.0 0.0 0.00 0.00 0.00 63 1010.9
20260509172716 17 119 0.0 0.0 0.00 0.00 0.00 64 1011.0
20260509172215 17 119 0.0 0.0 0.00 0.00 0.00 65 1011.0
20260509171714 17 121 0.0 0.0 0.00 0.00 0.00 65 1011.0
20260509171213 17 121 0.0 0.0 0.00 0.00 0.00 64 1011.0
20260509170715 17 121 0.0 0.0 0.00 0.00 0.00 65 1011.1
20260509170215 17 121 0.0 0.0 0.00 0.00 0.00 64 1011.1
20260509165716 17 118 0.0 0.0 0.00 0.00 0.00 62 1011.1
20260509165214 17 118 0.0 0.0 0.00 0.00 0.00 63 1011.1
20260509164713 17 118 0.0 0.0 0.00 0.00 0.00 62 1011.0
20260509164215 17 118 0.0 0.0 0.00 0.00 0.00 63 1011.0
20260509163714 17 118 0.0 0.0 0.00 0.00 0.00 59 1011.0
20260509163214 17 219 0.0 0.0 0.00 0.00 0.00 64 1011.2
20260509162714 17 219 0.0 0.0 0.00 0.00 0.00 63 1011.1
20260509162214 17 219 0.0 0.0 0.00 0.00 0.00 63 1011.2
20260509161215 17 174 0.0 0.0 0.00 0.00 0.00 62 1011.2
20260509160714 17 173 0.0 4.8 0.00 0.00 0.00 62 1011.2
20260509160214 17 174 0.0 4.8 0.00 0.00 0.00 62 1011.2
20260509155714 17 173 0.0 4.8 0.00 0.00 0.00 63 1011.2
20260509155214 17 174 0.0 0.0 0.00 0.00 0.00 64 1011.2
20260509154713 17 174 0.0 0.0 0.00 0.00 0.00 63 1011.3
20260509154214 17 174 0.0 0.0 0.00 0.00 0.00 62 1011.3
20260509153715 17 174 0.0 0.0 0.00 0.00 0.00 61 1011.3
20260509153215 17 174 0.0 8.0 0.00 0.00 0.00 62 1011.3
20260509152714 17 174 0.0 8.0 0.00 0.00 0.00 62 1011.3
20260509152217 16 158 0.0 0.0 0.00 0.00 0.00 63 1011.3
20260509151717 16 153 0.0 0.0 0.00 0.00 0.00 66 1011.3
20260509151217 16 153 0.0 0.0 0.00 0.00 0.00 63 1011.4
20260509150717 16 157 0.0 0.0 0.00 0.00 0.00 63 1011.4
20260509150216 16 157 0.0 0.0 0.00 0.00 0.00 65 1011.6
20260509145718 16 157 0.0 0.0 0.00 0.00 0.00 64 1011.5
20260509145217 16 157 0.0 0.0 0.00 0.00 0.00 65 1011.6
20260509144717 16 157 0.0 0.0 0.00 0.00 0.00 64 1011.7
20260509144217 16 155 0.0 0.0 0.00 0.00 0.00 65 1011.8
20260509143218 15 155 0.0 0.0 0.00 0.00 0.00 62 1011.8
20260509142717 15 155 0.0 1.6 0.00 0.00 0.00 61 1011.8
20260509142218 15 154 0.0 1.6 0.00 0.00 0.00 62 1011.8
20260509141717 15 143 0.0 0.0 0.00 0.00 0.00 62 1011.6
20260509141217 15 143 0.0 0.0 0.00 0.00 0.00 63 1011.6
20260509140221 15 144 0.0 0.0 0.00 0.00 0.00 62 1011.6
20260509135719 15 142 0.0 3.2 0.00 0.00 0.00 61 1011.7
20260509135217 15 267 0.0 3.2 0.00 0.00 0.00 62 1011.8
20260509134717 15 269 0.0 1.6 0.00 0.00 0.00 62 1011.7
20260509134217 15 269 0.0 1.6 0.00 0.00 0.00 60 1011.6
20260509133717 15 207 0.0 0.0 0.00 0.00 0.00 64 1011.6
20260509133218 15 192 0.0 1.6 0.00 0.00 0.00 63 1011.6
20260509131717 15 195 0.0 0.0 0.00 0.00 0.00 62 1011.7
20260509131217 15 195 0.0 0.0 0.00 0.00 0.00 62 1011.7
20260509130717 15 195 0.0 1.6 0.00 0.00 0.00 61 1011.6
20260509125717 15 195 0.0 0.0 0.00 0.00 0.00 62 1011.6
20260509125216 15 68 0.0 0.0 0.00 0.00 0.00 61 1011.5
20260509124718 15 139 0.0 0.0 0.00 0.00 0.00 64 1011.6
20260509124218 15 138 0.0 0.0 0.00 0.00 0.00 61 1011.7
20260509123217 14 131 0.0 0.0 0.00 0.00 0.00 62 1011.7
20260509122714 14 92 0.0 0.0 0.00 0.00 0.00 63 1011.7
20260509122214 14 89 0.0 0.0 0.00 0.00 0.00 64 1011.8
20260509121714 14 110 0.0 0.0 0.00 0.00 0.00 62 1011.7
20260509121214 14 224 0.0 0.0 0.00 0.00 0.00 64 1011.6
20260509120215 14 197 0.0 0.0 0.00 0.00 0.00 63 1011.5
20260509115714 14 197 0.0 0.0 0.00 0.00 0.00 62 1011.4
20260509115214 14 197 0.0 0.0 0.00 0.00 0.00 62 1011.5
20260509114214 13 202 0.0 0.0 0.00 0.00 0.00 64 1011.4
20260509113714 13 202 0.0 0.0 0.00 0.00 0.00 63 1011.3
20260509113214 13 202 0.0 0.0 0.00 0.00 0.00 63 1011.3
20260509112715 13 153 0.0 0.0 0.00 0.00 0.00 63 1011.2
20260509112217 13 153 0.0 0.0 0.00 0.00 0.00 63 1011.2
20260509111218 13 158 0.0 3.2 0.00 0.00 0.00 62 1011.1
20260509110717 13 158 0.0 3.2 0.00 0.00 0.00 61 1011.2
20260509110217 13 158 0.0 0.0 0.00 0.00 0.00 59 1011.0
20260509105717 13 158 0.0 0.0 0.00 0.00 0.00 59 1011.0
20260509105217 13 158 0.0 0.0 0.00 0.00 0.00 58 1010.9
20260509104717 13 158 0.0 0.0 0.00 0.00 0.00 58 1010.9
20260509104218 13 158 0.0 0.0 0.00 0.00 0.00 58 1010.8
20260509103717 13 35 0.0 0.0 0.00 0.00 0.00 58 1010.8
20260509102714 13 35 0.0 0.0 0.00 0.00 0.00 58 1010.8
20260509102215 13 293 0.0 0.0 0.00 0.00 0.00 58 1010.8
20260509101214 13 293 0.0 0.0 0.00 0.00 0.00 58 1010.8
20260509100715 13 293 0.0 0.0 0.00 0.00 0.00 58 1010.8
20260509100214 13 293 0.0 0.0 0.00 0.00 0.00 60 1010.8
20260509095714 13 293 0.0 0.0 0.00 0.00 0.00 59 1010.8